| time (UTC) | temp C | wind direction | speed KPH | gust KPH | rain 1hr cm | rain 24hr cm | rain mn cm | humidity % | barometer mb |
| 20260507073046 | 12 | 305 | 4.8 | 8.0 | 0.00 | 0.00 | 0.00 | 69 | 1015.9 |
| 20260507072546 | 12 | 306 | 6.4 | 8.0 | 0.00 | 0.00 | 0.00 | 69 | 1015.9 |
| 20260507072046 | 11 | 300 | 4.8 | 8.0 | 0.00 | 0.00 | 0.00 | 69 | 1015.6 |
| 20260507071546 | 12 | 320 | 8.0 | 12.9 | 0.00 | 0.00 | 0.00 | 69 | 1015.9 |
| 20260507071046 | 11 | 352 | 4.8 | 8.0 | 0.00 | 0.00 | 0.00 | 71 | 1015.6 |
| 20260507070546 | 11 | 313 | 4.8 | 8.0 | 0.00 | 0.00 | 0.00 | 70 | 1015.6 |
| 20260507070046 | 11 | 299 | 8.0 | 8.0 | 0.00 | 0.00 | 0.00 | 71 | 1015.6 |
| 20260507065546 | 11 | 297 | 4.8 | 8.0 | 0.00 | 0.00 | 0.00 | 72 | 1015.6 |
| 20260507065046 | 11 | 296 | 3.2 | 8.0 | 0.00 | 0.00 | 0.00 | 73 | 1015.6 |
| 20260507064547 | 11 | 355 | 4.8 | 9.7 | 0.00 | 0.00 | 0.00 | 72 | 1015.9 |
| 20260507064046 | 11 | 326 | 4.8 | 9.7 | 0.00 | 0.00 | 0.00 | 72 | 1015.9 |
| 20260507063547 | 11 | 314 | 4.8 | 8.0 | 0.00 | 0.00 | 0.00 | 73 | 1015.6 |
| 20260507063046 | 10 | 275 | 3.2 | 9.7 | 0.00 | 0.00 | 0.00 | 73 | 1015.6 |
| 20260507062547 | 10 | 318 | 4.8 | 4.8 | 0.00 | 0.00 | 0.00 | 74 | 1015.6 |
| 20260507062046 | 10 | 307 | 4.8 | 9.7 | 0.00 | 0.00 | 0.00 | 74 | 1015.2 |
| 20260507061547 | 10 | 299 | 4.8 | 4.8 | 0.00 | 0.00 | 0.00 | 75 | 1015.2 |
| 20260507061047 | 10 | 290 | 3.2 | 6.4 | 0.00 | 0.00 | 0.00 | 77 | 1015.6 |
| 20260507060547 | 10 | 282 | 8.0 | 9.7 | 0.00 | 0.00 | 0.00 | 76 | 1015.6 |
| 20260507060046 | 10 | 280 | 4.8 | 6.4 | 0.00 | 0.00 | 0.00 | 77 | 1015.2 |
| 20260507055547 | 9 | 292 | 4.8 | 8.0 | 0.00 | 0.00 | 0.00 | 77 | 1015.6 |
| 20260507055046 | 9 | 298 | 4.8 | 6.4 | 0.00 | 0.00 | 0.00 | 78 | 1015.6 |
| 20260507054547 | 9 | 305 | 4.8 | 12.9 | 0.00 | 0.00 | 0.00 | 78 | 1015.2 |
| 20260507054046 | 9 | 303 | 4.8 | 8.0 | 0.00 | 0.00 | 0.00 | 78 | 1015.2 |
| 20260507053546 | 9 | 300 | 3.2 | 11.3 | 0.00 | 0.00 | 0.00 | 78 | 1015.2 |
| 20260507053046 | 9 | 307 | 8.0 | 9.7 | 0.00 | 0.00 | 0.00 | 78 | 1015.2 |
| 20260507052546 | 8 | 295 | 4.8 | 4.8 | 0.00 | 0.00 | 0.00 | 79 | 1015.2 |
| 20260507052047 | 8 | 323 | 8.0 | 8.0 | 0.00 | 0.00 | 0.00 | 80 | 1015.2 |
| 20260507051546 | 8 | 11 | 1.6 | 8.0 | 0.00 | 0.00 | 0.00 | 80 | 1015.2 |
| 20260507051047 | 8 | 312 | 4.8 | 4.8 | 0.00 | 0.00 | 0.00 | 81 | 1015.2 |
| 20260507050547 | 8 | 302 | 3.2 | 8.0 | 0.00 | 0.00 | 0.00 | 82 | 1014.9 |
| 20260507050046 | 8 | 278 | 4.8 | 11.3 | 0.00 | 0.00 | 0.00 | 82 | 1015.2 |
| 20260507045547 | 8 | 288 | 4.8 | 6.4 | 0.00 | 0.00 | 0.00 | 82 | 1015.2 |
| 20260507045046 | 8 | 288 | 3.2 | 4.8 | 0.00 | 0.00 | 0.00 | 82 | 1014.9 |
| 20260507044546 | 8 | 277 | 4.8 | 6.4 | 0.00 | 0.00 | 0.00 | 81 | 1014.9 |
| 20260507044046 | 8 | 325 | 1.6 | 6.4 | 0.00 | 0.00 | 0.00 | 82 | 1014.9 |
| 20260507043547 | 8 | 283 | 4.8 | 6.4 | 0.00 | 0.00 | 0.00 | 82 | 1014.9 |
| 20260507043047 | 8 | 300 | 3.2 | 4.8 | 0.00 | 0.00 | 0.00 | 83 | 1014.9 |
| 20260507042547 | 8 | 287 | 4.8 | 6.4 | 0.00 | 0.00 | 0.00 | 83 | 1014.6 |
| 20260507042046 | 8 | 308 | 4.8 | 4.8 | 0.00 | 0.00 | 0.00 | 82 | 1014.6 |
| 20260507041547 | 8 | 287 | 3.2 | 6.4 | 0.00 | 0.00 | 0.00 | 82 | 1014.6 |
| 20260507041047 | 8 | 289 | 4.8 | 4.8 | 0.00 | 0.00 | 0.00 | 82 | 1014.2 |
| 20260507040547 | 8 | 298 | 3.2 | 6.4 | 0.00 | 0.00 | 0.00 | 82 | 1014.6 |
| 20260507040047 | 8 | 260 | 0.0 | 8.0 | 0.00 | 0.00 | 0.00 | 82 | 1014.2 |
| 20260507035546 | 8 | 311 | 3.2 | 4.8 | 0.00 | 0.00 | 0.00 | 82 | 1014.2 |
| 20260507035046 | 8 | 312 | 4.8 | 8.0 | 0.00 | 0.00 | 0.00 | 83 | 1014.2 |
| 20260507034546 | 8 | 318 | 3.2 | 4.8 | 0.00 | 0.00 | 0.00 | 84 | 1014.2 |
| 20260507034046 | 8 | 283 | 3.2 | 4.8 | 0.00 | 0.00 | 0.00 | 84 | 1014.2 |
| 20260507033546 | 8 | 293 | 1.6 | 4.8 | 0.00 | 0.00 | 0.00 | 84 | 1014.2 |
| 20260507033046 | 8 | 292 | 4.8 | 4.8 | 0.00 | 0.00 | 0.00 | 83 | 1014.2 |
| 20260507032547 | 8 | 289 | 4.8 | 4.8 | 0.00 | 0.00 | 0.00 | 83 | 1014.2 |
| 20260507032047 | 8 | 283 | 4.8 | 4.8 | 0.00 | 0.00 | 0.00 | 83 | 1014.2 |
| 20260507031546 | 8 | 288 | 4.8 | 6.4 | 0.00 | 0.00 | 0.00 | 83 | 1014.2 |
| 20260507031047 | 8 | 303 | 4.8 | 4.8 | 0.00 | 0.00 | 0.00 | 83 | 1014.2 |
| 20260507030546 | 8 | 287 | 3.2 | 4.8 | 0.00 | 0.00 | 0.00 | 83 | 1014.2 |
| 20260507030047 | 8 | 297 | 4.8 | 4.8 | 0.00 | 0.00 | 0.00 | 83 | 1013.9 |
| 20260507025547 | 8 | 297 | 3.2 | 4.8 | 0.00 | 0.00 | 0.00 | 82 | 1014.2 |
| 20260507025047 | 8 | 286 | 4.8 | 8.0 | 0.00 | 0.00 | 0.00 | 82 | 1014.2 |
| 20260507024546 | 8 | 290 | 3.2 | 4.8 | 0.00 | 0.00 | 0.00 | 82 | 1014.2 |
| 20260507024047 | 8 | 286 | 3.2 | 4.8 | 0.00 | 0.00 | 0.00 | 82 | 1014.2 |
| 20260507023546 | 8 | 293 | 3.2 | 4.8 | 0.00 | 0.00 | 0.00 | 82 | 1014.2 |
| 20260507023049 | 8 | 287 | 4.8 | 6.4 | 0.00 | 0.00 | 0.00 | 81 | 1014.2 |
| 20260507022546 | 8 | 289 | 4.8 | 6.4 | 0.00 | 0.00 | 0.00 | 81 | 1014.2 |
| 20260507022047 | 8 | 278 | 3.2 | 4.8 | 0.00 | 0.00 | 0.00 | 81 | 1013.9 |
| 20260507021547 | 9 | 285 | 3.2 | 4.8 | 0.00 | 0.00 | 0.00 | 82 | 1013.9 |
| 20260507021047 | 9 | 270 | 4.8 | 4.8 | 0.00 | 0.00 | 0.00 | 82 | 1013.9 |
| 20260507020546 | 9 | 302 | 4.8 | 8.0 | 0.00 | 0.00 | 0.00 | 81 | 1013.5 |
| 20260507020046 | 9 | 287 | 4.8 | 4.8 | 0.00 | 0.00 | 0.00 | 82 | 1013.5 |
| 20260507015547 | 9 | 300 | 3.2 | 4.8 | 0.00 | 0.00 | 0.00 | 81 | 1013.5 |
| 20260507015046 | 9 | 285 | 3.2 | 6.4 | 0.00 | 0.00 | 0.00 | 81 | 1013.5 |
| 20260507014546 | 9 | 296 | 3.2 | 6.4 | 0.00 | 0.00 | 0.00 | 81 | 1013.5 |
| 20260507014048 | 9 | 280 | 3.2 | 4.8 | 0.00 | 0.00 | 0.00 | 82 | 1013.9 |
| 20260507013546 | 9 | 290 | 4.8 | 4.8 | 0.00 | 0.00 | 0.00 | 82 | 1013.5 |
| 20260507013047 | 9 | 273 | 6.4 | 6.4 | 0.00 | 0.00 | 0.00 | 82 | 1013.5 |
| 20260507012547 | 9 | 295 | 4.8 | 4.8 | 0.00 | 0.00 | 0.00 | 82 | 1013.5 |
| 20260507012047 | 10 | 298 | 3.2 | 6.4 | 0.00 | 0.00 | 0.00 | 81 | 1013.5 |
| 20260507011546 | 10 | 294 | 3.2 | 6.4 | 0.00 | 0.00 | 0.00 | 81 | 1013.5 |
| 20260507011048 | 10 | 298 | 3.2 | 4.8 | 0.00 | 0.00 | 0.00 | 81 | 1013.5 |
| 20260507010547 | 10 | 290 | 4.8 | 4.8 | 0.00 | 0.00 | 0.00 | 81 | 1013.5 |
| 20260507010047 | 10 | 279 | 3.2 | 4.8 | 0.00 | 0.00 | 0.00 | 81 | 1013.5 |
| 20260507005546 | 10 | 285 | 3.2 | 4.8 | 0.00 | 0.00 | 0.00 | 81 | 1013.5 |
| 20260507005047 | 10 | 303 | 4.8 | 4.8 | 0.00 | 0.00 | 0.00 | 81 | 1013.5 |
| 20260507004546 | 10 | 294 | 3.2 | 4.8 | 0.00 | 0.00 | 0.00 | 81 | 1013.5 |
| 20260507004047 | 10 | 291 | 4.8 | 4.8 | 0.00 | 0.00 | 0.00 | 81 | 1013.2 |
| 20260507003547 | 10 | 293 | 3.2 | 4.8 | 0.00 | 0.00 | 0.00 | 80 | 1013.2 |
| 20260507003047 | 10 | 296 | 3.2 | 4.8 | 0.00 | 0.00 | 0.00 | 80 | 1013.2 |
| 20260507002547 | 10 | 291 | 3.2 | 4.8 | 0.00 | 0.00 | 0.00 | 80 | 1013.5 |
| 20260507002046 | 10 | 284 | 1.6 | 4.8 | 0.00 | 0.00 | 0.00 | 80 | 1013.2 |
| 20260507001546 | 10 | 284 | 4.8 | 6.4 | 0.00 | 0.00 | 0.00 | 79 | 1013.2 |
| 20260507001046 | 10 | 289 | 3.2 | 4.8 | 0.00 | 0.00 | 0.00 | 79 | 1013.2 |
| 20260507000547 | 10 | 305 | 3.2 | 6.4 | 0.00 | 0.00 | 0.00 | 79 | 1013.2 |
| 20260507000046 | 10 | 309 | 6.4 | 6.4 | 0.00 | 0.00 | 0.00 | 78 | 1013.2 |
| 20260506235546 | 10 | 285 | 4.8 | 4.8 | 0.00 | 0.00 | 0.00 | 78 | 1013.2 |
| 20260506235046 | 10 | 288 | 0.0 | 4.8 | 0.00 | 0.00 | 0.00 | 77 | 1013.2 |
| 20260506234548 | 10 | 286 | 3.2 | 6.4 | 0.00 | 0.00 | 0.00 | 77 | 1013.2 |
| 20260506234046 | 10 | 286 | 4.8 | 4.8 | 0.00 | 0.00 | 0.00 | 77 | 1013.2 |
| 20260506233546 | 10 | 295 | 4.8 | 4.8 | 0.00 | 0.00 | 0.00 | 77 | 1013.2 |
| 20260506233047 | 10 | 281 | 4.8 | 4.8 | 0.00 | 0.00 | 0.00 | 76 | 1013.2 |
| 20260506232547 | 10 | 304 | 3.2 | 4.8 | 0.00 | 0.00 | 0.00 | 77 | 1013.2 |
| 20260506232046 | 10 | 285 | 3.2 | 6.4 | 0.00 | 0.00 | 0.00 | 76 | 1012.9 |
| 20260506231546 | 10 | 330 | 3.2 | 4.8 | 0.00 | 0.00 | 0.00 | 77 | 1013.2 |
| 20260506231047 | 10 | 284 | 3.2 | 6.4 | 0.00 | 0.00 | 0.00 | 77 | 1012.9 |
| 20260506230546 | 10 | 266 | 4.8 | 4.8 | 0.00 | 0.00 | 0.00 | 78 | 1012.9 |
| 20260506230046 | 10 | 289 | 3.2 | 6.4 | 0.00 | 0.00 | 0.00 | 79 | 1013.2 |
| 20260506225546 | 10 | 286 | 3.2 | 4.8 | 0.00 | 0.00 | 0.00 | 80 | 1012.9 |
| 20260506225046 | 10 | 277 | 3.2 | 4.8 | 0.00 | 0.00 | 0.00 | 80 | 1012.9 |
| 20260506224546 | 10 | 298 | 4.8 | 4.8 | 0.00 | 0.00 | 0.00 | 80 | 1012.9 |
| 20260506224047 | 10 | 279 | 4.8 | 4.8 | 0.00 | 0.00 | 0.00 | 80 | 1012.9 |
| 20260506223546 | 10 | 298 | 3.2 | 6.4 | 0.00 | 0.00 | 0.00 | 80 | 1012.9 |
| 20260506223046 | 10 | 283 | 4.8 | 4.8 | 0.00 | 0.00 | 0.00 | 80 | 1012.9 |
| 20260506222547 | 10 | 286 | 4.8 | 4.8 | 0.00 | 0.00 | 0.00 | 79 | 1012.9 |
| 20260506222047 | 10 | 284 | 4.8 | 4.8 | 0.00 | 0.00 | 0.00 | 80 | 1012.9 |
| 20260506221546 | 10 | 278 | 4.8 | 4.8 | 0.00 | 0.00 | 0.00 | 80 | 1012.9 |
| 20260506221047 | 10 | 298 | 4.8 | 4.8 | 0.00 | 0.00 | 0.00 | 79 | 1012.9 |
| 20260506220546 | 10 | 297 | 4.8 | 4.8 | 0.00 | 0.00 | 0.00 | 79 | 1012.9 |
| 20260506220047 | 10 | 305 | 4.8 | 4.8 | 0.00 | 0.00 | 0.00 | 79 | 1012.9 |
| 20260506215547 | 10 | 290 | 3.2 | 4.8 | 0.00 | 0.00 | 0.15 | 79 | 1012.9 |
| 20260506215047 | 10 | 287 | 4.8 | 4.8 | 0.00 | 0.00 | 0.15 | 79 | 1012.5 |
| 20260506214546 | 10 | 292 | 4.8 | 4.8 | 0.00 | 0.00 | 0.15 | 79 | 1012.5 |
| 20260506214049 | 10 | 307 | 3.2 | 6.4 | 0.00 | 0.00 | 0.15 | 78 | 1012.9 |
| 20260506213546 | 10 | 287 | 4.8 | 4.8 | 0.00 | 0.00 | 0.15 | 78 | 1012.5 |
| 20260506213046 | 10 | 297 | 4.8 | 4.8 | 0.00 | 0.00 | 0.15 | 78 | 1012.5 |
| 20260506212546 | 10 | 297 | 3.2 | 4.8 | 0.00 | 0.00 | 0.15 | 78 | 1012.5 |
| 20260506212047 | 10 | 291 | 3.2 | 4.8 | 0.00 | 0.00 | 0.15 | 77 | 1012.5 |
| 20260506211547 | 10 | 292 | 3.2 | 4.8 | 0.00 | 0.00 | 0.15 | 77 | 1012.5 |
| 20260506211046 | 10 | 295 | 3.2 | 4.8 | 0.00 | 0.00 | 0.15 | 77 | 1012.5 |
| 20260506210548 | 10 | 287 | 4.8 | 4.8 | 0.00 | 0.00 | 0.15 | 77 | 1012.5 |
| 20260506210047 | 10 | 294 | 3.2 | 4.8 | 0.00 | 0.00 | 0.15 | 76 | 1012.5 |
| 20260506205547 | 10 | 292 | 4.8 | 4.8 | 0.00 | 0.00 | 0.15 | 76 | 1012.5 |
| 20260506205047 | 10 | 319 | 3.2 | 4.8 | 0.00 | 0.00 | 0.15 | 76 | 1012.9 |
| 20260506204546 | 10 | 312 | 4.8 | 4.8 | 0.00 | 0.00 | 0.15 | 76 | 1012.5 |
| 20260506204047 | 10 | 332 | 3.2 | 4.8 | 0.00 | 0.00 | 0.15 | 77 | 1012.5 |
| 20260506203546 | 10 | 301 | 3.2 | 4.8 | 0.00 | 0.00 | 0.15 | 78 | 1012.5 |
| 20260506203049 | 10 | 333 | 4.8 | 4.8 | 0.00 | 0.00 | 0.15 | 78 | 1012.2 |
| 20260506202547 | 10 | 324 | 1.6 | 4.8 | 0.00 | 0.00 | 0.15 | 78 | 1012.2 |
| 20260506202046 | 10 | 270 | 4.8 | 4.8 | 0.00 | 0.00 | 0.15 | 78 | 1012.2 |
| 20260506201546 | 10 | 294 | 4.8 | 4.8 | 0.00 | 0.00 | 0.15 | 78 | 1012.5 |
| 20260506201046 | 10 | 302 | 3.2 | 4.8 | 0.00 | 0.00 | 0.15 | 78 | 1012.5 |
| 20260506200548 | 10 | 305 | 4.8 | 4.8 | 0.00 | 0.00 | 0.15 | 78 | 1012.2 |
| 20260506200048 | 10 | 287 | 3.2 | 4.8 | 0.00 | 0.00 | 0.15 | 78 | 1012.2 |
| 20260506195547 | 10 | 300 | 3.2 | 4.8 | 0.00 | 0.00 | 0.15 | 78 | 1012.2 |
| 20260506195046 | 10 | 299 | 3.2 | 4.8 | 0.00 | 0.00 | 0.15 | 78 | 1012.2 |
| 20260506194546 | 10 | 307 | 4.8 | 4.8 | 0.00 | 0.00 | 0.15 | 77 | 1012.2 |
| 20260506194047 | 10 | 316 | 4.8 | 4.8 | 0.00 | 0.00 | 0.15 | 77 | 1011.9 |
| 20260506193547 | 10 | 344 | 4.8 | 6.4 | 0.00 | 0.00 | 0.15 | 77 | 1011.9 |
| 20260506193050 | 10 | 335 | 4.8 | 4.8 | 0.00 | 0.00 | 0.15 | 76 | 1011.9 |
| 20260506192546 | 10 | 313 | 4.8 | 4.8 | 0.00 | 0.00 | 0.15 | 77 | 1011.9 |
| 20260506192046 | 10 | 299 | 3.2 | 6.4 | 0.00 | 0.00 | 0.15 | 76 | 1011.9 |
| 20260506191547 | 10 | 332 | 0.0 | 6.4 | 0.00 | 0.00 | 0.15 | 76 | 1011.9 |
| 20260506191047 | 10 | 306 | 4.8 | 6.4 | 0.00 | 0.00 | 0.15 | 76 | 1011.9 |
| 20260506190546 | 10 | 313 | 4.8 | 8.0 | 0.00 | 0.00 | 0.15 | 75 | 1011.5 |
| 20260506190047 | 10 | 306 | 3.2 | 4.8 | 0.00 | 0.00 | 0.15 | 76 | 1011.5 |
| 20260506185546 | 10 | 311 | 3.2 | 4.8 | 0.00 | 0.00 | 0.15 | 76 | 1011.5 |
| 20260506185047 | 10 | 309 | 4.8 | 8.0 | 0.00 | 0.00 | 0.15 | 75 | 1011.5 |
| 20260506184547 | 11 | 335 | 3.2 | 11.3 | 0.00 | 0.00 | 0.15 | 76 | 1011.5 |
| 20260506184047 | 11 | 240 | 3.2 | 9.7 | 0.00 | 0.00 | 0.15 | 76 | 1011.5 |
| 20260506183546 | 11 | 292 | 4.8 | 4.8 | 0.00 | 0.00 | 0.15 | 76 | 1011.2 |
| 20260506183048 | 11 | 296 | 3.2 | 8.0 | 0.00 | 0.00 | 0.15 | 75 | 1011.5 |
| 20260506182546 | 11 | 353 | 4.8 | 8.0 | 0.00 | 0.00 | 0.15 | 75 | 1011.5 |
| 20260506182047 | 11 | 312 | 3.2 | 6.4 | 0.00 | 0.00 | 0.15 | 76 | 1011.2 |
| 20260506181546 | 11 | 305 | 3.2 | 6.4 | 0.00 | 0.00 | 0.15 | 76 | 1011.2 |
| 20260506181047 | 11 | 292 | 4.8 | 4.8 | 0.00 | 0.00 | 0.15 | 77 | 1011.2 |
| 20260506180546 | 11 | 293 | 4.8 | 8.0 | 0.00 | 0.00 | 0.15 | 76 | 1010.8 |
| 20260506180046 | 11 | 345 | 4.8 | 8.0 | 0.00 | 0.00 | 0.15 | 76 | 1011.2 |
| 20260506175547 | 11 | 305 | 3.2 | 4.8 | 0.00 | 0.00 | 0.15 | 77 | 1010.8 |
| 20260506175047 | 11 | 304 | 4.8 | 8.0 | 0.00 | 0.00 | 0.15 | 76 | 1010.8 |
| 20260506174548 | 11 | 302 | 4.8 | 4.8 | 0.00 | 0.00 | 0.15 | 76 | 1011.2 |
| 20260506174046 | 11 | 310 | 4.8 | 8.0 | 0.00 | 0.00 | 0.15 | 76 | 1010.8 |
| 20260506173550 | 10 | 359 | 4.8 | 8.0 | 0.00 | 0.00 | 0.15 | 76 | 1010.8 |
| 20260506173047 | 10 | 344 | 8.0 | 14.5 | 0.00 | 0.00 | 0.15 | 76 | 1010.8 |
| 20260506172547 | 10 | 295 | 4.8 | 8.0 | 0.00 | 0.00 | 0.15 | 77 | 1010.5 |
| 20260506172046 | 10 | 303 | 6.4 | 14.5 | 0.00 | 0.00 | 0.15 | 76 | 1010.5 |
| 20260506171546 | 10 | 305 | 3.2 | 8.0 | 0.00 | 0.00 | 0.15 | 78 | 1010.5 |
| 20260506171047 | 10 | 301 | 4.8 | 6.4 | 0.00 | 0.00 | 0.15 | 77 | 1010.5 |
| 20260506170548 | 10 | 337 | 4.8 | 6.4 | 0.00 | 0.00 | 0.15 | 77 | 1010.5 |
| 20260506170046 | 10 | 353 | 8.0 | 12.9 | 0.00 | 0.00 | 0.15 | 77 | 1010.5 |
| 20260506165547 | 10 | 325 | 4.8 | 6.4 | 0.00 | 0.00 | 0.15 | 78 | 1010.5 |
| 20260506165046 | 10 | 299 | 6.4 | 8.0 | 0.00 | 0.00 | 0.15 | 77 | 1010.2 |
| 20260506164546 | 11 | 284 | 3.2 | 11.3 | 0.00 | 0.00 | 0.15 | 76 | 1010.5 |
| 20260506164047 | 11 | 316 | 4.8 | 6.4 | 0.00 | 0.00 | 0.15 | 77 | 1010.2 |
| 20260506163546 | 11 | 287 | 4.8 | 12.9 | 0.00 | 0.00 | 0.15 | 76 | 1010.5 |
| 20260506163047 | 11 | 318 | 4.8 | 9.7 | 0.00 | 0.00 | 0.15 | 75 | 1010.2 |
| 20260506162546 | 11 | 314 | 6.4 | 8.0 | 0.00 | 0.00 | 0.15 | 75 | 1010.2 |
| 20260506162048 | 11 | 257 | 3.2 | 6.4 | 0.00 | 0.00 | 0.15 | 74 | 1010.2 |
| 20260506161546 | 11 | 59 | 4.8 | 9.7 | 0.00 | 0.00 | 0.15 | 73 | 1010.2 |
| 20260506161047 | 11 | 306 | 6.4 | 14.5 | 0.00 | 0.00 | 0.15 | 74 | 1010.2 |
| 20260506160546 | 11 | 304 | 6.4 | 8.0 | 0.00 | 0.00 | 0.15 | 72 | 1010.2 |
| 20260506160050 | 11 | 285 | 4.8 | 11.3 | 0.00 | 0.00 | 0.15 | 71 | 1010.2 |
| 20260506155547 | 11 | 319 | 4.8 | 6.4 | 0.00 | 0.00 | 0.15 | 70 | 1010.2 |
| 20260506155047 | 11 | 249 | 3.2 | 11.3 | 0.00 | 0.00 | 0.15 | 69 | 1010.5 |
| 20260506154547 | 11 | 293 | 1.6 | 11.3 | 0.00 | 0.00 | 0.15 | 70 | 1010.2 |
| 20260506154046 | 11 | 312 | 8.0 | 9.7 | 0.00 | 0.00 | 0.15 | 69 | 1010.2 |
| 20260506153547 | 12 | 232 | 3.2 | 8.0 | 0.00 | 0.00 | 0.15 | 68 | 1009.8 |
| 20260506153047 | 12 | 354 | 4.8 | 8.0 | 0.00 | 0.00 | 0.15 | 68 | 1009.8 |
| 20260506152547 | 12 | 294 | 6.4 | 9.7 | 0.00 | 0.00 | 0.15 | 67 | 1009.8 |
| 20260506152046 | 12 | 294 | 4.8 | 8.0 | 0.00 | 0.00 | 0.15 | 67 | 1009.8 |
| 20260506151547 | 12 | 288 | 4.8 | 6.4 | 0.00 | 0.00 | 0.15 | 68 | 1010.2 |
| 20260506151047 | 12 | 296 | 6.4 | 9.7 | 0.00 | 0.00 | 0.15 | 67 | 1010.2 |
| 20260506150547 | 12 | 273 | 3.2 | 6.4 | 0.00 | 0.00 | 0.15 | 70 | 1010.2 |
| 20260506150046 | 12 | 258 | 4.8 | 6.4 | 0.00 | 0.00 | 0.15 | 69 | 1009.8 |
| 20260506145547 | 12 | 333 | 4.8 | 6.4 | 0.00 | 0.00 | 0.15 | 69 | 1010.2 |
| 20260506145047 | 12 | 1 | 8.0 | 9.7 | 0.00 | 0.00 | 0.15 | 69 | 1009.8 |
| 20260506144549 | 12 | 32 | 14.5 | 16.1 | 0.00 | 0.00 | 0.15 | 66 | 1010.2 |
| 20260506144047 | 12 | 355 | 8.0 | 9.7 | 0.00 | 0.00 | 0.15 | 64 | 1009.8 |
| 20260506143547 | 12 | 311 | 4.8 | 14.5 | 0.00 | 0.00 | 0.15 | 64 | 1009.8 |
| 20260506143047 | 12 | 248 | 4.8 | 11.3 | 0.00 | 0.00 | 0.15 | 63 | 1009.8 |
| 20260506142546 | 12 | 268 | 4.8 | 6.4 | 0.00 | 0.00 | 0.15 | 62 | 1009.8 |
| 20260506142047 | 12 | 291 | 8.0 | 8.0 | 0.00 | 0.00 | 0.15 | 64 | 1009.8 |
| 20260506141546 | 12 | 281 | 9.7 | 9.7 | 0.00 | 0.00 | 0.15 | 63 | 1009.8 |
| 20260506141047 | 12 | 339 | 8.0 | 16.1 | 0.00 | 0.00 | 0.15 | 63 | 1009.8 |
| 20260506140547 | 12 | 339 | 3.2 | 8.0 | 0.00 | 0.00 | 0.15 | 63 | 1009.8 |
| 20260506140047 | 12 | 263 | 4.8 | 4.8 | 0.00 | 0.00 | 0.15 | 65 | 1009.8 |
| 20260506135547 | 12 | 313 | 6.4 | 9.7 | 0.00 | 0.00 | 0.15 | 63 | 1009.8 |
| 20260506135047 | 12 | 280 | 4.8 | 11.3 | 0.00 | 0.00 | 0.15 | 63 | 1009.8 |
| 20260506134547 | 12 | 296 | 9.7 | 12.9 | 0.00 | 0.00 | 0.15 | 63 | 1009.8 |
| 20260506134047 | 12 | 311 | 6.4 | 11.3 | 0.00 | 0.00 | 0.15 | 66 | 1009.8 |
| 20260506133547 | 12 | 78 | 4.8 | 8.0 | 0.00 | 0.00 | 0.15 | 65 | 1009.8 |
| 20260506133046 | 12 | 21 | 3.2 | 11.3 | 0.00 | 0.00 | 0.15 | 66 | 1009.8 |
| 20260506132546 | 12 | 316 | 8.0 | 9.7 | 0.00 | 0.00 | 0.15 | 66 | 1009.8 |
| 20260506132046 | 12 | 310 | 6.4 | 9.7 | 0.00 | 0.00 | 0.15 | 66 | 1009.8 |
| 20260506131548 | 12 | 316 | 8.0 | 8.0 | 0.00 | 0.00 | 0.15 | 66 | 1009.8 |
| 20260506131047 | 12 | 355 | 6.4 | 8.0 | 0.00 | 0.00 | 0.15 | 68 | 1009.8 |
| 20260506130547 | 12 | 282 | 6.4 | 11.3 | 0.00 | 0.00 | 0.15 | 65 | 1009.8 |
| 20260506130047 | 12 | 290 | 8.0 | 8.0 | 0.00 | 0.00 | 0.15 | 66 | 1009.8 |
| 20260506125547 | 12 | 302 | 4.8 | 11.3 | 0.00 | 0.00 | 0.15 | 66 | 1009.5 |
| 20260506125047 | 12 | 303 | 4.8 | 9.7 | 0.00 | 0.00 | 0.15 | 66 | 1009.5 |
| 20260506124546 | 12 | 305 | 9.7 | 12.9 | 0.00 | 0.00 | 0.15 | 65 | 1009.8 |
| 20260506124047 | 12 | 295 | 4.8 | 4.8 | 0.00 | 0.00 | 0.15 | 67 | 1009.8 |
| 20260506123546 | 12 | 311 | 3.2 | 8.0 | 0.00 | 0.00 | 0.15 | 67 | 1009.5 |
| 20260506123047 | 12 | 330 | 4.8 | 12.9 | 0.00 | 0.00 | 0.15 | 67 | 1009.5 |
| 20260506122547 | 12 | 38 | 3.2 | 14.5 | 0.00 | 0.00 | 0.15 | 66 | 1009.5 |
| 20260506122047 | 12 | 286 | 4.8 | 8.0 | 0.00 | 0.00 | 0.15 | 67 | 1009.5 |
| 20260506121546 | 12 | 331 | 3.2 | 11.3 | 0.00 | 0.00 | 0.15 | 65 | 1009.5 |
| 20260506121047 | 12 | 316 | 4.8 | 8.0 | 0.00 | 0.00 | 0.15 | 66 | 1009.5 |
| 20260506120547 | 12 | 284 | 6.4 | 11.3 | 0.00 | 0.00 | 0.15 | 66 | 1009.1 |
| 20260506120046 | 12 | 341 | 4.8 | 11.3 | 0.00 | 0.00 | 0.15 | 65 | 1009.1 |
| 20260506115546 | 12 | 309 | 9.7 | 11.3 | 0.00 | 0.00 | 0.15 | 64 | 1009.5 |
| 20260506115047 | 12 | 330 | 6.4 | 17.7 | 0.00 | 0.00 | 0.15 | 66 | 1009.1 |
| 20260506114547 | 12 | 255 | 3.2 | 6.4 | 0.00 | 0.00 | 0.15 | 67 | 1009.1 |
| 20260506114047 | 12 | 296 | 4.8 | 9.7 | 0.00 | 0.00 | 0.15 | 67 | 1009.1 |
| 20260506113547 | 12 | 268 | 9.7 | 12.9 | 0.00 | 0.00 | 0.15 | 66 | 1009.1 |
| 20260506113047 | 12 | 11 | 9.7 | 9.7 | 0.00 | 0.00 | 0.15 | 68 | 1009.1 |
| 20260506112546 | 12 | 304 | 6.4 | 14.5 | 0.00 | 0.00 | 0.15 | 69 | 1009.1 |
| 20260506112046 | 12 | 321 | 12.9 | 17.7 | 0.00 | 0.00 | 0.15 | 68 | 1009.1 |
| 20260506111547 | 12 | 318 | 8.0 | 8.0 | 0.00 | 0.00 | 0.15 | 69 | 1009.1 |
| 20260506111046 | 12 | 319 | 4.8 | 16.1 | 0.00 | 0.00 | 0.15 | 71 | 1009.1 |
| 20260506110547 | 11 | 319 | 4.8 | 17.7 | 0.00 | 0.00 | 0.15 | 68 | 1009.5 |
| 20260506110047 | 11 | 305 | 3.2 | 16.1 | 0.00 | 0.00 | 0.15 | 71 | 1009.1 |
| 20260506105546 | 11 | 275 | 3.2 | 8.0 | 0.00 | 0.00 | 0.15 | 74 | 1009.1 |
| 20260506105047 | 11 | 307 | 8.0 | 8.0 | 0.00 | 0.00 | 0.15 | 75 | 1009.1 |
| 20260506104546 | 11 | 10 | 4.8 | 8.0 | 0.00 | 0.00 | 0.15 | 78 | 1009.5 |
| 20260506104046 | 11 | 318 | 8.0 | 17.7 | 0.00 | 0.00 | 0.15 | 78 | 1009.5 |
| 20260506103549 | 11 | 308 | 11.3 | 14.5 | 0.00 | 0.00 | 0.15 | 79 | 1009.1 |
| 20260506103047 | 11 | 276 | 4.8 | 11.3 | 0.00 | 0.00 | 0.15 | 79 | 1009.1 |
| 20260506102547 | 11 | 34 | 3.2 | 14.5 | 0.00 | 0.00 | 0.15 | 80 | 1009.1 |
| 20260506102047 | 11 | 304 | 6.4 | 9.7 | 0.00 | 0.00 | 0.15 | 79 | 1009.1 |
| 20260506101550 | 11 | 303 | 9.7 | 12.9 | 0.00 | 0.00 | 0.15 | 79 | 1009.1 |
| 20260506101047 | 11 | 0 | 4.8 | 12.9 | 0.00 | 0.00 | 0.15 | 79 | 1009.1 |
| 20260506100546 | 11 | 307 | 6.4 | 11.3 | 0.00 | 0.00 | 0.15 | 80 | 1009.1 |
| 20260506100047 | 11 | 280 | 6.4 | 11.3 | 0.00 | 0.00 | 0.15 | 79 | 1009.1 |
| 20260506095546 | 11 | 358 | 4.8 | 9.7 | 0.00 | 0.00 | 0.15 | 79 | 1008.8 |
| 20260506095046 | 11 | 352 | 6.4 | 9.7 | 0.00 | 0.00 | 0.15 | 79 | 1008.8 |
| 20260506094547 | 11 | 288 | 4.8 | 14.5 | 0.00 | 0.00 | 0.15 | 79 | 1008.8 |
| 20260506094047 | 11 | 330 | 6.4 | 9.7 | 0.00 | 0.00 | 0.15 | 79 | 1008.8 |
| 20260506093546 | 11 | 10 | 6.4 | 8.0 | 0.00 | 0.00 | 0.15 | 79 | 1008.5 |
| 20260506093047 | 11 | 277 | 3.2 | 6.4 | 0.00 | 0.00 | 0.15 | 79 | 1008.8 |
| 20260506092546 | 11 | 301 | 6.4 | 14.5 | 0.00 | 0.00 | 0.15 | 79 | 1008.5 |
| 20260506092046 | 12 | 297 | 8.0 | 12.9 | 0.00 | 0.00 | 0.15 | 80 | 1008.5 |
| 20260506091549 | 11 | 291 | 6.4 | 8.0 | 0.00 | 0.00 | 0.15 | 80 | 1008.5 |
| 20260506091047 | 11 | 37 | 4.8 | 9.7 | 0.00 | 0.00 | 0.15 | 80 | 1008.5 |
| 20260506090546 | 11 | 319 | 6.4 | 12.9 | 0.00 | 0.00 | 0.15 | 80 | 1008.5 |
| 20260506090046 | 11 | 264 | 4.8 | 9.7 | 0.00 | 0.00 | 0.15 | 81 | 1008.5 |
| 20260506085546 | 11 | 291 | 8.0 | 12.9 | 0.00 | 0.00 | 0.15 | 82 | 1008.5 |
| 20260506085047 | 11 | 289 | 6.4 | 9.7 | 0.00 | 0.00 | 0.15 | 84 | 1008.5 |
| 20260506084546 | 11 | 303 | 4.8 | 12.9 | 0.00 | 0.00 | 0.15 | 84 | 1008.5 |
| 20260506084046 | 11 | 313 | 0.0 | 8.0 | 0.00 | 0.00 | 0.15 | 84 | 1008.5 |
| 20260506083546 | 11 | 340 | 4.8 | 16.1 | 0.00 | 0.00 | 0.15 | 84 | 1008.5 |
| 20260506083046 | 11 | 285 | 3.2 | 11.3 | 0.00 | 0.00 | 0.15 | 85 | 1008.5 |
| 20260506082547 | 11 | 305 | 3.2 | 8.0 | 0.00 | 0.00 | 0.15 | 86 | 1008.5 |
| 20260506082047 | 10 | 303 | 4.8 | 6.4 | 0.00 | 0.00 | 0.15 | 86 | 1008.1 |
| 20260506081547 | 10 | 297 | 6.4 | 8.0 | 0.00 | 0.00 | 0.15 | 87 | 1008.1 |
| 20260506081046 | 10 | 314 | 4.8 | 8.0 | 0.00 | 0.00 | 0.15 | 87 | 1008.1 |
| 20260506080546 | 10 | 302 | 4.8 | 12.9 | 0.00 | 0.00 | 0.15 | 87 | 1008.5 |